Погода Запорожье

Погода Запорожье : погода сейчас, прогноз погоды и архив. Всё, что Вы хотите узнать о погоде Запорожье!

Хотите узнать прогноз погоды в Запорожье? Тогда Вам сюда: Погода в Запорожье

Поиск расширенной информации на нашем сайте:

Другие новости

Новости СМИ2

Главная страница сайта

Новости сайта

02.10.2013

Напоминаем, что на нашем новом сайте вы можете получить высокодетализированные прогнозы погоды по пунктам России, СНГ и мира (включающие важные для авиации метеовеличины, такие как направление и скорость ветра, видимость, явления погоды, количество и форма облачности, нижняя и верхняя граница облачности), а также ознакомиться с разнообразными материалами по авиационной метеорологии и подборкой полезных ссылок на эту тему.

Сайт Метеоцентр.Азия посвящён разработке технологий оптимизации авиаметеорологического обслуживания, включая проектирование и перспективное создание нескольких автоматизированных авиаметеорологических систем:
- система выпуска высокодетальных прогностических карт явлений погоды для нижнего воздушного пространства по России и ближнему зарубежью;
- система верификации прогнозов TAF (выпускаемых синоптиками официальных АМСГ РФ и ближнего зарубежья) и AUTOTAF (выпускаемых сайтом Метеоцентр.Азия) - выявление ошибок, онлайн-сопоставление с фактической погодой METAR, автоматическое внесение коррективов в прогнозы при резком отклонении фактической погоды от прогноза, подсчёт оправдываемости прогнозов по элементам и в целом;
- система обработки, анализа и отображения авиаметеорологической информации для применения провайдерами метеорологической информации.

Рекомендуем: Бесплатное обучение за границей способа получить образование за рубежом бесплатно.

Погода Запорожье - сегодня

Время (UTC), дата Ветер
(°,м/с) 
Видим.   Явления Облачность Т
(°С)
Тd
(°С)
f(%) Тe
(°С)
Pmin
(гПа)
dP
(гПа)
Po
(мм)
O2
(г/м3)
Тmin Tmax R s Состояние
почвы
18 18.02.17 170 (Ю) 10 км    9/9 1000 м 
[Sc]
+0.5 -1.1 89 1023.4  0.6  757  305    +2.1       
21 18.02.17 180 (Ю) 10 км    9/9 700 м 
[Sc]
+0.3 -1.1 90 -1  1024.4  0.9  758  305           
00 19.02.17 170 (Ю) 10 км    9/9 750 м 
[Sc]
+0.4 -1.2 89 1024.9  0.5  758  305           
03 19.02.17 210 (ЮЗ) 10 км    9/9 540 м 
[Sc]
+0.9 -0.3 92 -1  1025.4  0.6  759  305           
06 19.02.17 190 (Ю) 10 км    10/10 150 м 
[St]
+1.1 -0.8 87 1026.8  1.3  760  305  +0.1      11  равномерный
мокрый или
старый снег
100% 
09 19.02.17 200 (Ю) 10 км    9/9 300 м 
[Sc]
+2.2 -0.6 82 +1  1027.4  0.7  760  304           
12 19.02.17 220 (ЮЗ) 4800 м  дымка  9/9 300 м 
[Sc]
+2.7 +0.1 83 +2  1027  -0.4  760  303           
15 19.02.17 тихо ()   2400 м  дымка  10/10 240 м 
[St]
+1.6 +0.3 91 +2  1026.8  -0.2  760  304           
18 19.02.17 нст () 1500 м  дымка  9/9 270 м 
[Sc]
+0.9 -0.3 92 +2  1026.8  -0.1  760  305    +2.8       
21 19.02.17 тихо ()   0900 м  туман  ?/? 120 
+0.5 +0.5 100 +1  1026.3  -0.5  759  305           
00 20.02.17 тихо ()   0500 м  туман  ?/? 60 
+0.4 +0.4 100 1025.8  -0.5  759  305           
03 20.02.17 тихо ()   1200 м  в посл. час туман  9/9 480 м 
[Sc]
+0.5 +0.2 98 +1  1025.1  -0.7  758  305           
06 20.02.17 тихо ()   3200 м  дымка{туман}  4/0 верхняя 
[Ci fib]
+0.5 -0.9 90 +1  1024.4  -0.7  758  305  +0.3      10  равномерный
мокрый или
старый снег
100% 
09 20.02.17 120 (ЮВ) 10 км    5/0 верхняя 
[Ci fib]
+4.6 -0.6 69 +5  1023.2  -0.9  757  300           
12 20.02.17 160 (Ю) 10 км    8/0 
[]
+4.2 -1.4 67 +4  1021.1  -2.1  755  300           
15 20.02.17 150 (ЮВ) 10 км    10/10 180 м 
[St]
+1.7 +0.4 91 1019.5  -1.7  754  302           
18 20.02.17 110 (В) 2700 м  дымка  10/10 120 м 
[St]
+1.2 +0.6 96 1017.4  -2.1  753  302    +5.2       
21 20.02.17 090 (В) 1200 м  в посл. час туман  10/10 150 м 
[St]
+0.6 +0.3 98 1015.6  -1.8  751  302           
00 21.02.17 тихо ()   4000 м  дымка  10/10 210 м 
[St]
+0.6 -0.3 94 +1  1013.1  -2.5  749  301           
03 21.02.17 180 (Ю) 0200 м  туман  ?/? 60 
+0.6 +0.6 100 -1  1011.5  -1.6  748  301           
06 21.02.17 170 (Ю) 0100 м  слаб. морось{туман}  ?/? 30 
+1.1 +1.1 100 1010.4  -1  747  300  +0.3    0.0  неравномерный
мокрый или
старый снег
100% 
09 21.02.17 190 (Ю) 2000 м  в посл. час туман{морось}  10/10 120 м 
[St]
+2 +1.7 98 1009.4  -1  747  298           
12 21.02.17 180 (Ю) 3400 м  дымка{морось, туман}  10/10 100 м 
[St]
+1.9 +1.6 98 1007.9  -1.4  746  298      0.0     
15 21.02.17 190 (Ю) 3200 м  дымка{туман}  10/10 120 м 
[St]
+1.8 +1.2 96 -1  1006.5  -1.4  745  298           
18 21.02.17 200 (Ю) 4100 м  дымка  10/10 180 м 
[St]
+1.8 +1.2 96 -1  1005.5  -1  744  298    +2.1  0.0     
Время (UTC), дата Ветер
(°,м/с) 
Видим.   Явления Облачность Т
(°С)
Тd
(°С)
f(%) Тe
(°С)
Pmin
(гПа)
dP
(гПа)
Po
(мм)
O2
(г/м3)
Тmin Tmax R s Состояние
почвы

Для получения пояснительной информации подведите курсор к названию столбца.

ПОГОДА Запорожье - архив

Всё, что Вы хотите узнать о погоде Запорожье - удобно и подробно!

Выберите нужную дату (начиная с 1 января 2015* года) и нажмите кнопку "Найти".
Будут отображены архивные сводки погоды по пункту Запорожье, начиная с указанной даты.


Отображать данные в формате CSV (для использования в таблицах Excel)


Внимание! Наш архив погоды предназначен исключительно для личного некоммерческого использования в познавательных целях. Если Вам необходимы официальные справки о состоянии погоды (для производственных, юридических, коммерческих и т.п. целей), обращайтесь в органы Росгидромета.

*Примечание: данная дата относится к архиву по метеостанциям СССР (Россия, СНГ, Балтия).
Архив по метеостанциям Зарубежной Европы и Азии (кроме Китая) хранится 10 дней, по другим регионам земного шара (Китай, Африка, Америка, Австралия, Океания) - 1 день.

Запорожье - район местоположения метеостанции


Название, широта, долгота, высота метеостанции:
Запорожье 47.8°ш. 35°д. 112 м над ур. моря [Украина]

Дополнительная информация

В oтличие oт бoльшинства пoгoдных сайтoв мы публикуем пoдрoбную метеoинфoрмацию в детальнoм прoфессиoнальнoм фoрмате.

Характеристики температуры и влажнoсти вoздуха измеряются на высoте 2 м в тени вдали oт зданий и деревьев.
Скoрoсть ветра измеряется на высoте 10 м (на урoвне рoста челoвека скoрoсть ветра ниже в 1.5-2 раза). Если метеoстанция нахoдится в гoрoде или в лесу, тo скoрoсть ветра занижена на 2-4 м/с пo сравнению с oткрытым местoм. Скoрoсть ветра над акватoриями крупных рек и oзёр, а также на вершинах хoлмoв на 2-5 м/с выше, чем в oбычных услoвиях.
Атмoсфернoе давление в разных тoчках местнoсти мoжет значительнo oтличаться oт давления на метеoстанции, в зависимoсти oт услoвий рельефа (при пoдъёме на 10 м давление пoнижается примернo на 1 мм рт.ст.).